Time,TemperatureF,DewpointF,PressureIn,WindDirection,WindDirectionDegrees,WindSpeedMPH,WindSpeedGustMPH,Humidity,HourlyPrecipIn,Conditions,Clouds,dailyrainin,SoftwareType,DateUTC
2013-01-02 00:05:00,14.7,5.1,30.00,SSW,211,0.0,0.0,65,0.00,CLR,,0.00,WeatherDisplay:10.37,2013-01-02 06:05:00,
2013-01-02 00:10:00,14.9,5.2,30.00,SW,226,3.6,3.6,65,0.00,CLR,,0.00,WeatherDisplay:10.37,2013-01-02 06:10:00,
2013-01-02 00:15:00,14.9,5.2,30.00,SSW,211,3.5,3.5,65,0.00,CLR,,0.00,WeatherDisplay:10.37,2013-01-02 06:15:00,
2013-01-02 00:20:00,15.1,5.4,30.00,SW,215,2.7,0.0,65,0.00,CLR,,0.00,WeatherDisplay:10.37,2013-01-02 06:20:00,
2013-01-02 00:25:00,15.1,5.4,30.00,SW,220,3.5,3.5,65,0.00,CLR,,0.00,WeatherDisplay:10.37,2013-01-02 06:25:00,
2013-01-02 00:31:00,15.3,5.6,30.00,SW,229,3.5,3.6,65,0.00,CLR,,0.00,WeatherDisplay:10.37,2013-01-02 06:31:00,
2013-01-02 00:36:00,15.4,5.8,29.97,SW,227,3.5,3.6,65,0.00,CLR,,0.00,WeatherDisplay:10.37,2013-01-02 06:36:00,
2013-01-02 00:41:00,15.4,6.1,29.97,SW,222,5.8,5.8,66,0.00,CLR,,0.00,WeatherDisplay:10.37,2013-01-02 06:41:00,
2013-01-02 00:46:00,15.8,6.4,29.97,SW,214,5.8,5.8,66,0.00,CLR,,0.00,WeatherDisplay:10.37,2013-01-02 06:46:00,
2013-01-02 00:52:00,15.8,6.4,29.97,SSW,203,5.8,5.8,66,0.00,CLR,,0.00,WeatherDisplay:10.37,2013-01-02 06:52:00,
2013-01-02 00:57:00,16.0,6.6,29.97,South,190,4.9,4.9,66,0.00,CLR,,0.00,WeatherDisplay:10.37,2013-01-02 06:57:00,
2013-01-02 01:02:00,16.0,6.3,29.97,SSW,198,4.6,4.6,65,0.00,CLR,,0.00,WeatherDisplay:10.37,2013-01-02 07:02:00,
2013-01-02 01:07:00,16.0,6.3,29.97,SSW,199,4.9,4.9,65,0.00,CLR,,0.00,WeatherDisplay:10.37,2013-01-02 07:07:00,
2013-01-02 01:12:00,16.0,6.3,29.97,SSW,195,5.8,5.8,65,0.00,CLR,,0.00,WeatherDisplay:10.37,2013-01-02 07:12:00,
2013-01-02 01:18:00,16.0,6.3,29.97,SW,216,5.8,5.8,65,0.00,CLR,,0.00,WeatherDisplay:10.37,2013-01-02 07:18:00,
2013-01-02 01:23:00,16.0,6.6,29.97,SSW,209,5.8,5.8,66,0.00,CLR,,0.00,WeatherDisplay:10.37,2013-01-02 07:23:00,
2013-01-02 01:28:00,16.0,6.6,29.97,SSW,201,3.5,4.0,66,0.00,CLR,,0.00,WeatherDisplay:10.37,2013-01-02 07:28:00,
2013-01-02 01:33:00,16.0,6.6,29.97,SW,220,5.8,5.8,66,0.00,CLR,,0.00,WeatherDisplay:10.37,2013-01-02 07:33:00,
2013-01-02 01:38:00,16.0,6.6,29.97,SW,220,4.9,4.9,66,0.00,CLR,,0.00,WeatherDisplay:10.37,2013-01-02 07:38:00,
2013-01-02 01:43:00,16.2,6.8,29.97,SSW,208,6.3,6.3,66,0.00,CLR,,0.00,WeatherDisplay:10.37,2013-01-02 07:43:00,
2013-01-02 01:48:00,16.2,6.8,29.97,SSW,198,5.8,5.8,66,0.00,CLR,,0.00,WeatherDisplay:10.37,2013-01-02 07:48:00,
2013-01-02 01:53:00,16.3,7.0,29.97,SSW,195,3.5,3.6,66,0.00,CLR,,0.00,WeatherDisplay:10.37,2013-01-02 07:53:00,
2013-01-02 01:58:00,16.3,7.0,29.97,SSW,206,3.5,3.6,66,0.00,CLR,,0.00,WeatherDisplay:10.37,2013-01-02 07:58:00,
2013-01-02 02:04:00,16.5,7.1,29.97,SSW,204,5.8,5.8,66,0.00,CLR,,0.00,WeatherDisplay:10.37,2013-01-02 08:04:00,
2013-01-02 02:09:00,16.5,7.5,29.97,SSW,194,3.1,3.1,67,0.00,CLR,,0.00,WeatherDisplay:10.37,2013-01-02 08:09:00,
2013-01-02 02:14:00,16.5,7.5,29.97,SSW,200,4.0,4.0,67,0.00,CLR,,0.00,WeatherDisplay:10.37,2013-01-02 08:14:00,
2013-01-02 02:19:00,16.5,7.5,29.97,SSW,193,2.3,0.0,67,0.00,CLR,,0.00,WeatherDisplay:10.37,2013-01-02 08:19:00,
2013-01-02 02:24:00,16.5,7.5,29.97,SW,222,4.6,4.6,67,0.00,CLR,,0.00,WeatherDisplay:10.37,2013-01-02 08:24:00,
2013-01-02 02:29:00,16.5,7.5,29.97,SSW,203,3.5,3.5,67,0.00,CLR,,0.00,WeatherDisplay:10.37,2013-01-02 08:29:00,
2013-01-02 02:34:00,16.5,7.5,29.97,SSW,200,2.7,2.7,67,0.00,CLR,,0.00,WeatherDisplay:10.37,2013-01-02 08:34:00,
2013-01-02 02:39:00,16.5,7.5,29.97,SSW,196,3.6,0.0,67,0.00,CLR,,0.00,WeatherDisplay:10.37,2013-01-02 08:39:00,
2013-01-02 02:45:00,16.7,7.6,29.97,South,191,4.6,4.6,67,0.00,CLR,,0.00,WeatherDisplay:10.37,2013-01-02 08:45:00,
2013-01-02 02:50:00,16.7,7.6,29.97,SSW,197,3.5,3.5,67,0.00,CLR,,0.00,WeatherDisplay:10.37,2013-01-02 08:50:00,
2013-01-02 02:55:00,16.7,7.6,29.97,SSW,209,3.5,3.6,67,0.00,CLR,,0.00,WeatherDisplay:10.37,2013-01-02 08:55:00,
2013-01-02 03:00:00,16.7,7.6,29.97,South,191,3.5,3.5,67,0.00,CLR,,0.00,WeatherDisplay:10.37,2013-01-02 09:00:00,
2013-01-02 03:06:00,16.7,7.6,29.97,SSW,200,3.6,3.6,67,0.00,CLR,,0.00,WeatherDisplay:10.37,2013-01-02 09:06:00,
2013-01-02 03:11:00,16.7,7.6,29.97,SSW,202,5.8,5.8,67,0.00,CLR,,0.00,WeatherDisplay:10.37,2013-01-02 09:11:00,
2013-01-02 03:16:00,16.7,7.6,29.97,SW,221,4.6,4.6,67,0.00,CLR,,0.00,WeatherDisplay:10.37,2013-01-02 09:16:00,
2013-01-02 03:21:00,16.9,7.8,29.97,SW,226,8.1,8.1,67,0.00,CLR,,0.00,WeatherDisplay:10.37,2013-01-02 09:21:00,
2013-01-02 03:26:00,16.9,7.8,29.97,SW,219,6.9,6.9,67,0.00,CLR,,0.00,WeatherDisplay:10.37,2013-01-02 09:26:00,
2013-01-02 03:32:00,16.9,7.5,29.97,SSW,204,5.8,5.8,66,0.00,CLR,,0.00,WeatherDisplay:10.37,2013-01-02 09:32:00,
2013-01-02 03:37:00,17.1,7.6,29.97,SW,214,3.5,3.6,66,0.00,CLR,,0.00,WeatherDisplay:10.37,2013-01-02 09:37:00,
2013-01-02 03:42:00,17.1,7.6,29.97,SSW,212,5.8,5.8,66,0.00,CLR,,0.00,WeatherDisplay:10.37,2013-01-02 09:42:00,
2013-01-02 03:47:00,17.1,7.6,29.97,SW,232,10.4,10.4,66,0.00,CLR,,0.00,WeatherDisplay:10.37,2013-01-02 09:47:00,
2013-01-02 03:52:00,16.9,7.5,29.97,SSW,196,5.8,5.8,66,0.00,CLR,,0.00,WeatherDisplay:10.37,2013-01-02 09:52:00,
2013-01-02 03:58:00,16.9,7.1,29.97,SW,219,8.1,8.1,65,0.00,CLR,,0.00,WeatherDisplay:10.37,2013-01-02 09:58:00,
2013-01-02 04:03:00,16.9,7.1,29.97,SSW,209,8.0,8.0,65,0.00,CLR,,0.00,WeatherDisplay:10.37,2013-01-02 10:03:00,
2013-01-02 04:09:00,16.7,7.0,29.97,South,186,8.1,8.1,65,0.00,CLR,,0.00,WeatherDisplay:10.37,2013-01-02 10:09:00,
2013-01-02 04:14:00,16.7,7.0,29.97,South,185,5.8,5.8,65,0.00,CLR,,0.00,WeatherDisplay:10.37,2013-01-02 10:14:00,
2013-01-02 04:19:00,16.5,6.8,29.94,SSW,210,5.8,5.8,65,0.00,CLR,,0.00,WeatherDisplay:10.37,2013-01-02 10:19:00,
2013-01-02 04:24:00,16.3,6.6,29.94,SSW,206,5.8,5.8,65,0.00,CLR,,0.00,WeatherDisplay:10.37,2013-01-02 10:24:00,
2013-01-02 04:29:00,16.2,6.5,29.94,SSW,213,5.8,5.8,65,0.00,CLR,,0.00,WeatherDisplay:10.37,2013-01-02 10:29:00,
2013-01-02 04:35:00,15.8,6.1,29.94,SSW,198,5.8,5.8,65,0.00,CLR,,0.00,WeatherDisplay:10.37,2013-01-02 10:35:00,
2013-01-02 04:40:00,15.3,5.6,29.94,SSW,194,5.8,5.8,65,0.00,CLR,,0.00,WeatherDisplay:10.37,2013-01-02 10:40:00,
2013-01-02 04:45:00,14.9,5.2,29.94,South,175,4.6,4.6,65,0.00,CLR,,0.00,WeatherDisplay:10.37,2013-01-02 10:45:00,
2013-01-02 04:50:00,14.4,4.7,29.94,SSW,204,3.5,3.5,65,0.00,CLR,,0.00,WeatherDisplay:10.37,2013-01-02 10:50:00,
2013-01-02 04:55:00,14.0,4.7,29.94,South,186,3.5,3.5,66,0.00,CLR,,0.00,WeatherDisplay:10.37,2013-01-02 10:55:00,
2013-01-02 05:01:00,13.6,4.4,29.94,SSE,160,3.1,3.1,66,0.00,CLR,,0.00,WeatherDisplay:10.37,2013-01-02 11:01:00,
2013-01-02 05:06:00,13.3,4.0,29.94,SSE,156,2.3,0.0,66,0.00,CLR,,0.00,WeatherDisplay:10.37,2013-01-02 11:06:00,
2013-01-02 05:11:00,12.9,3.7,29.94,South,175,0.0,0.0,66,0.00,CLR,,0.00,WeatherDisplay:10.37,2013-01-02 11:11:00,
2013-01-02 05:16:00,12.6,3.3,29.94,SSE,162,4.6,4.6,66,0.00,CLR,,0.00,WeatherDisplay:10.37,2013-01-02 11:16:00,
2013-01-02 05:21:00,12.2,3.0,29.94,South,172,3.5,3.5,66,0.00,CLR,,0.00,WeatherDisplay:10.37,2013-01-02 11:21:00,
2013-01-02 05:27:00,12.0,2.8,29.94,SSE,150,2.3,2.3,66,0.00,CLR,,0.00,WeatherDisplay:10.37,2013-01-02 11:27:00,
2013-01-02 05:32:00,11.8,2.7,29.94,SSE,147,3.5,0.0,66,0.00,CLR,,0.00,WeatherDisplay:10.37,2013-01-02 11:32:00,
2013-01-02 05:37:00,11.7,2.5,29.94,South,186,3.5,3.5,66,0.00,CLR,,0.00,WeatherDisplay:10.37,2013-01-02 11:37:00,
2013-01-02 05:42:00,11.3,2.1,29.94,SSE,155,3.5,3.6,66,0.00,CLR,,0.00,WeatherDisplay:10.37,2013-01-02 11:42:00,
2013-01-02 05:47:00,11.1,2.0,29.94,SSE,159,2.3,0.0,66,0.00,CLR,,0.00,WeatherDisplay:10.37,2013-01-02 11:47:00,
2013-01-02 05:52:00,10.9,1.8,29.94,SSE,158,2.3,0.0,66,0.00,CLR,,0.00,WeatherDisplay:10.37,2013-01-02 11:52:00,
2013-01-02 05:58:00,10.8,1.6,29.94,SSE,164,3.5,3.5,66,0.00,CLR,,0.00,WeatherDisplay:10.37,2013-01-02 11:58:00,
2013-01-02 06:03:00,10.6,1.5,29.94,SSE,164,0.0,0.0,66,0.00,CLR,,0.00,WeatherDisplay:10.37,2013-01-02 12:03:00,
2013-01-02 06:08:00,10.6,1.5,29.94,South,191,0.0,0.0,66,0.00,CLR,,0.00,WeatherDisplay:10.37,2013-01-02 12:08:00,
2013-01-02 06:13:00,10.6,1.5,29.94,SSE,147,0.0,0.0,66,0.00,CLR,,0.00,WeatherDisplay:10.37,2013-01-02 12:13:00,
2013-01-02 06:18:00,10.6,1.5,29.94,SSE,164,3.5,3.5,66,0.00,CLR,,0.00,WeatherDisplay:10.37,2013-01-02 12:18:00,
2013-01-02 06:24:00,10.8,1.6,29.94,SE,146,0.0,0.0,66,0.00,CLR,,0.00,WeatherDisplay:10.37,2013-01-02 12:24:00,
2013-01-02 06:29:00,10.9,1.8,29.94,SSE,155,3.5,3.5,66,0.00,CLR,,0.00,WeatherDisplay:10.37,2013-01-02 12:29:00,
2013-01-02 06:34:00,11.1,2.0,29.94,SSE,153,0.0,0.0,66,0.00,CLR,,0.00,WeatherDisplay:10.37,2013-01-02 12:34:00,
2013-01-02 06:39:00,11.3,2.1,29.94,SSE,155,0.0,0.0,66,0.00,CLR,,0.00,WeatherDisplay:10.37,2013-01-02 12:39:00,
2013-01-02 06:44:00,11.7,2.5,29.94,South,170,3.5,3.5,66,0.00,CLR,,0.00,WeatherDisplay:10.37,2013-01-02 12:44:00,
2013-01-02 06:49:00,11.7,2.5,29.94,SSE,157,2.3,0.0,66,0.00,CLR,,0.00,WeatherDisplay:10.37,2013-01-02 12:49:00,
2013-01-02 06:54:00,11.8,2.7,29.94,SSE,160,4.6,4.6,66,0.00,CLR,,0.00,WeatherDisplay:10.37,2013-01-02 12:54:00,
2013-01-02 07:00:00,12.0,2.8,29.94,ESE,106,3.5,3.5,66,0.00,CLR,,0.00,WeatherDisplay:10.37,2013-01-02 13:00:00,
2013-01-02 07:05:00,12.0,2.8,29.94,SSE,164,3.5,3.5,66,0.00,CLR,,0.00,WeatherDisplay:10.37,2013-01-02 13:05:00,
2013-01-02 07:10:00,12.0,2.8,29.94,ESE,115,0.0,0.0,66,0.00,CLR,,0.00,WeatherDisplay:10.37,2013-01-02 13:10:00,
2013-01-02 07:15:00,12.0,2.8,29.94,East,100,3.5,0.0,66,0.00,CLR,,0.00,WeatherDisplay:10.37,2013-01-02 13:15:00,
2013-01-02 07:20:00,11.8,2.7,29.94,SSE,155,3.5,3.5,66,0.00,CLR,,0.00,WeatherDisplay:10.37,2013-01-02 13:20:00,
2013-01-02 07:25:00,11.7,2.5,29.94,SSE,149,2.7,0.0,66,0.00,CLR,,0.00,WeatherDisplay:10.37,2013-01-02 13:25:00,
2013-01-02 07:31:00,11.3,2.1,29.94,South,177,3.5,3.5,66,0.00,CLR,,0.00,WeatherDisplay:10.37,2013-01-02 13:31:00,
2013-01-02 07:36:00,10.9,1.8,29.94,SSE,150,3.5,0.0,66,0.00,CLR,,0.00,WeatherDisplay:10.37,2013-01-02 13:36:00,
2013-01-02 07:41:00,10.8,1.6,29.94,SE,146,3.5,3.5,66,0.00,CLR,,0.00,WeatherDisplay:10.37,2013-01-02 13:41:00,
2013-01-02 07:46:00,10.4,1.3,29.94,SSE,157,3.5,3.5,66,0.00,CLR,,0.00,WeatherDisplay:10.37,2013-01-02 13:46:00,
2013-01-02 07:51:00,10.4,1.3,29.94,SSE,151,3.5,3.5,66,0.00,CLR,,0.00,WeatherDisplay:10.37,2013-01-02 13:51:00,
2013-01-02 07:56:00,10.2,1.1,29.94,SSE,150,0.0,0.0,66,0.00,CLR,,0.00,WeatherDisplay:10.37,2013-01-02 13:56:00,
2013-01-02 08:01:00,10.0,0.9,29.94,SSE,150,0.0,0.0,66,0.00,CLR,,0.00,WeatherDisplay:10.37,2013-01-02 14:01:00,
2013-01-02 08:06:00,10.0,0.9,29.94,SE,145,0.0,0.0,66,0.00,CLR,,0.00,WeatherDisplay:10.37,2013-01-02 14:06:00,
2013-01-02 08:11:00,10.0,0.9,29.94,South,169,0.0,0.0,66,0.00,CLR,,0.00,WeatherDisplay:10.37,2013-01-02 14:11:00,
2013-01-02 08:17:00,10.0,0.9,29.94,South,187,0.0,0.0,66,0.00,CLR,,0.00,WeatherDisplay:10.37,2013-01-02 14:17:00,
2013-01-02 08:22:00,10.2,1.1,29.94,SSE,162,2.3,0.0,66,0.00,CLR,,0.00,WeatherDisplay:10.37,2013-01-02 14:22:00,
2013-01-02 08:27:00,10.6,1.5,29.94,SSE,153,0.0,0.0,66,0.00,CLR,,0.00,WeatherDisplay:10.37,2013-01-02 14:27:00,
2013-01-02 08:32:00,11.1,2.0,29.94,SSE,162,0.0,0.0,66,0.00,CLR,,0.00,WeatherDisplay:10.37,2013-01-02 14:32:00,
2013-01-02 08:37:00,11.5,2.3,29.94,SSE,160,3.5,3.5,66,0.00,CLR,,0.00,WeatherDisplay:10.37,2013-01-02 14:37:00,
2013-01-02 08:43:00,11.8,2.7,29.94,SSE,160,3.5,0.0,66,0.00,CLR,,0.00,WeatherDisplay:10.37,2013-01-02 14:43:00,
2013-01-02 08:48:00,12.0,2.8,29.94,SSE,152,3.5,3.5,66,0.00,CLR,,0.00,WeatherDisplay:10.37,2013-01-02 14:48:00,
2013-01-02 08:53:00,12.2,3.0,29.94,SSE,150,3.5,3.5,66,0.00,CLR,,0.00,WeatherDisplay:10.37,2013-01-02 14:53:00,
2013-01-02 08:59:00,12.6,3.3,29.94,SSE,155,2.7,0.0,66,0.00,CLR,,0.00,WeatherDisplay:10.37,2013-01-02 14:59:00,
2013-01-02 09:04:00,12.7,3.5,29.94,SSW,199,3.5,0.0,66,0.00,CLR,,0.00,WeatherDisplay:10.37,2013-01-02 15:04:00,
2013-01-02 09:09:00,12.7,3.5,29.94,SSE,159,4.0,4.0,66,0.00,CLR,,0.00,WeatherDisplay:10.37,2013-01-02 15:09:00,
2013-01-02 09:14:00,12.9,3.7,29.94,SSE,167,5.8,5.8,66,0.00,CLR,,0.00,WeatherDisplay:10.37,2013-01-02 15:14:00,
2013-01-02 09:19:00,13.1,3.9,29.94,SE,142,5.8,5.8,66,0.00,CLR,,0.00,WeatherDisplay:10.37,2013-01-02 15:19:00,
2013-01-02 09:24:00,13.5,4.2,29.94,SSE,151,5.8,5.8,66,0.00,CLR,,0.00,WeatherDisplay:10.37,2013-01-02 15:24:00,
2013-01-02 09:30:00,13.5,4.2,29.94,SSW,205,5.8,5.8,66,0.00,CLR,,0.00,WeatherDisplay:10.37,2013-01-02 15:30:00,
2013-01-02 09:35:00,13.5,4.2,29.94,South,173,4.0,4.0,66,0.00,CLR,,0.00,WeatherDisplay:10.37,2013-01-02 15:35:00,
2013-01-02 09:40:00,13.5,4.2,29.94,SSE,151,5.8,5.8,66,0.00,CLR,,0.00,WeatherDisplay:10.37,2013-01-02 15:40:00,
2013-01-02 09:45:00,13.5,4.2,29.94,South,183,4.6,4.6,66,0.00,CLR,,0.00,WeatherDisplay:10.37,2013-01-02 15:45:00,
2013-01-02 09:50:00,13.3,4.0,29.97,SSW,204,11.5,11.5,66,0.00,CLR,,0.00,WeatherDisplay:10.37,2013-01-02 15:50:00,
2013-01-02 09:55:00,13.3,4.0,29.97,South,189,5.8,5.8,66,0.00,CLR,,0.00,WeatherDisplay:10.37,2013-01-02 15:55:00,
2013-01-02 10:00:00,13.3,4.0,29.97,SSE,168,4.6,4.6,66,0.00,CLR,,0.00,WeatherDisplay:10.37,2013-01-02 16:00:00,
2013-01-02 10:05:00,13.5,4.2,29.97,SSW,193,5.8,5.8,66,0.00,CLR,,0.00,WeatherDisplay:10.37,2013-01-02 16:05:00,
2013-01-02 10:11:00,13.8,4.5,29.97,SSW,200,8.1,8.1,66,0.00,CLR,,0.00,WeatherDisplay:10.37,2013-01-02 16:11:00,
2013-01-02 10:16:00,13.8,4.5,29.97,South,183,8.1,8.1,66,0.00,CLR,,0.00,WeatherDisplay:10.37,2013-01-02 16:16:00,
2013-01-02 10:21:00,13.8,4.5,29.97,SSW,213,5.8,5.8,66,0.00,CLR,,0.00,WeatherDisplay:10.37,2013-01-02 16:21:00,
2013-01-02 10:26:00,14.2,2.5,29.97,SW,224,7.6,7.6,59,0.00,CLR,,0.00,WeatherDisplay:10.37,2013-01-02 16:26:00,
2013-01-02 10:31:00,14.4,2.6,29.97,South,190,3.5,3.5,59,0.00,CLR,,0.00,WeatherDisplay:10.37,2013-01-02 16:31:00,
2013-01-02 10:37:00,14.4,2.6,29.97,SSW,197,9.2,9.2,59,0.00,CLR,,0.00,WeatherDisplay:10.37,2013-01-02 16:37:00,
2013-01-02 10:42:00,14.0,2.3,29.97,SSE,155,3.5,3.6,59,0.00,CLR,,0.00,WeatherDisplay:10.37,2013-01-02 16:42:00,
2013-01-02 10:47:00,14.2,2.1,29.97,SSW,204,8.1,8.1,58,0.00,CLR,,0.00,WeatherDisplay:10.37,2013-01-02 16:47:00,
2013-01-02 10:52:00,14.5,2.8,29.94,SSW,203,2.3,2.3,59,0.00,CLR,,0.00,WeatherDisplay:10.37,2013-01-02 16:52:00,
2013-01-02 10:57:00,14.9,2.8,29.94,SSE,163,5.8,5.8,58,0.00,CLR,,0.00,WeatherDisplay:10.37,2013-01-02 16:57:00,
2013-01-02 11:03:00,15.3,3.1,29.94,SSW,208,5.8,5.8,58,0.00,CLR,,0.00,WeatherDisplay:10.37,2013-01-02 17:03:00,
2013-01-02 11:08:00,15.4,3.3,29.94,SSW,205,5.8,5.8,58,0.00,CLR,,0.00,WeatherDisplay:10.37,2013-01-02 17:08:00,
2013-01-02 11:13:00,15.6,3.1,29.94,South,184,5.8,5.8,57,0.00,CLR,,0.00,WeatherDisplay:10.37,2013-01-02 17:13:00,
2013-01-02 11:18:00,16.0,3.4,29.94,South,174,5.8,5.8,57,0.00,CLR,,0.00,WeatherDisplay:10.37,2013-01-02 17:18:00,
2013-01-02 11:24:00,16.2,3.6,29.94,SSW,207,5.8,5.8,57,0.00,CLR,,0.00,WeatherDisplay:10.37,2013-01-02 17:24:00,
2013-01-02 11:29:00,16.3,3.7,29.94,SW,220,3.5,3.5,57,0.00,CLR,,0.00,WeatherDisplay:10.37,2013-01-02 17:29:00,
2013-01-02 11:34:00,16.7,3.7,29.94,SW,215,3.5,3.5,56,0.00,CLR,,0.00,WeatherDisplay:10.37,2013-01-02 17:34:00,
2013-01-02 11:39:00,17.2,4.2,29.94,SSW,200,4.6,4.6,56,0.00,CLR,,0.00,WeatherDisplay:10.37,2013-01-02 17:39:00,
2013-01-02 11:45:00,17.4,4.4,29.94,SSW,202,5.8,5.8,56,0.00,CLR,,0.00,WeatherDisplay:10.37,2013-01-02 17:45:00,
2013-01-02 11:50:00,17.6,4.5,29.91,ESE,118,3.5,3.5,56,0.00,CLR,,0.00,WeatherDisplay:10.37,2013-01-02 17:50:00,
2013-01-02 11:55:00,18.1,4.7,29.91,ESE,123,5.8,5.8,55,0.00,CLR,,0.00,WeatherDisplay:10.37,2013-01-02 17:55:00,
2013-01-02 12:00:00,18.0,4.5,29.91,SE,142,3.5,3.5,55,0.00,CLR,,0.00,WeatherDisplay:10.37,2013-01-02 18:00:00,
2013-01-02 12:06:00,18.0,4.5,29.91,East,99,3.5,3.5,55,0.00,CLR,,0.00,WeatherDisplay:10.37,2013-01-02 18:06:00,
2013-01-02 12:11:00,17.8,4.3,29.91,SE,137,4.6,4.6,55,0.00,CLR,,0.00,WeatherDisplay:10.37,2013-01-02 18:11:00,
2013-01-02 12:16:00,17.4,4.0,29.91,SE,145,3.6,3.6,55,0.00,CLR,,0.00,WeatherDisplay:10.37,2013-01-02 18:16:00,
2013-01-02 12:21:00,17.2,3.8,29.91,South,169,5.8,5.8,55,0.00,CLR,,0.00,WeatherDisplay:10.37,2013-01-02 18:21:00,
2013-01-02 12:26:00,17.1,3.6,29.91,East,97,3.5,3.5,55,0.00,CLR,,0.00,WeatherDisplay:10.37,2013-01-02 18:26:00,
2013-01-02 12:31:00,16.9,3.5,29.91,South,170,4.0,4.0,55,0.00,CLR,,0.00,WeatherDisplay:10.37,2013-01-02 18:31:00,
2013-01-02 12:36:00,16.9,3.5,29.91,ESE,118,3.5,0.0,55,0.00,CLR,,0.00,WeatherDisplay:10.37,2013-01-02 18:36:00,
2013-01-02 12:42:00,16.7,3.3,29.91,ESE,108,3.5,3.5,55,0.00,CLR,,0.00,WeatherDisplay:10.37,2013-01-02 18:42:00,
2013-01-02 12:47:00,16.5,3.1,29.91,South,189,4.6,4.6,55,0.00,CLR,,0.00,WeatherDisplay:10.37,2013-01-02 18:47:00,
2013-01-02 12:52:00,16.5,3.1,29.91,SSE,166,5.8,5.8,55,0.00,CLR,,0.00,WeatherDisplay:10.37,2013-01-02 18:52:00,
2013-01-02 12:57:00,16.9,3.5,29.91,ESE,114,4.6,4.6,55,0.00,CLR,,0.00,WeatherDisplay:10.37,2013-01-02 18:57:00,
2013-01-02 13:03:00,17.1,3.6,29.91,ESE,110,2.3,0.0,55,0.00,CLR,,0.00,WeatherDisplay:10.37,2013-01-02 19:03:00,
2013-01-02 13:08:00,17.4,4.0,29.91,SSE,151,2.3,0.0,55,0.00,CLR,,0.00,WeatherDisplay:10.37,2013-01-02 19:08:00,
2013-01-02 13:13:00,17.6,4.2,29.91,SSE,156,5.8,5.8,55,0.00,CLR,,0.00,WeatherDisplay:10.37,2013-01-02 19:13:00,
2013-01-02 13:18:00,18.1,4.7,29.91,SSE,161,4.6,4.6,55,0.00,CLR,,0.00,WeatherDisplay:10.37,2013-01-02 19:18:00,
2013-01-02 13:23:00,18.7,5.2,29.91,WSW,242,3.5,3.5,55,0.00,CLR,,0.00,WeatherDisplay:10.37,2013-01-02 19:23:00,
2013-01-02 13:28:00,19.6,5.6,29.91,SSW,200,5.8,5.8,54,0.00,CLR,,0.00,WeatherDisplay:10.37,2013-01-02 19:28:00,
2013-01-02 13:33:00,19.9,5.9,29.91,SSW,212,3.5,3.5,54,0.00,CLR,,0.00,WeatherDisplay:10.37,2013-01-02 19:33:00,
2013-01-02 13:39:00,20.3,6.3,29.91,South,175,5.8,5.8,54,0.00,CLR,,0.00,WeatherDisplay:10.37,2013-01-02 19:39:00,
2013-01-02 13:44:00,20.1,6.1,29.91,SSW,213,3.5,3.5,54,0.00,CLR,,0.00,WeatherDisplay:10.37,2013-01-02 19:44:00,
2013-01-02 13:49:00,20.8,6.8,29.91,SW,222,3.5,3.5,54,0.00,CLR,,0.00,WeatherDisplay:10.37,2013-01-02 19:49:00,
2013-01-02 13:54:00,21.0,7.0,29.91,SE,139,2.3,0.0,54,0.00,CLR,,0.00,WeatherDisplay:10.37,2013-01-02 19:54:00,
2013-01-02 13:59:00,20.8,6.8,29.91,SSW,202,5.8,5.8,54,0.00,CLR,,0.00,WeatherDisplay:10.37,2013-01-02 19:59:00,
2013-01-02 14:04:00,20.3,6.3,29.91,SW,217,5.8,5.8,54,0.00,CLR,,0.00,WeatherDisplay:10.37,2013-01-02 20:04:00,
2013-01-02 14:09:00,19.9,5.9,29.91,SSW,200,5.8,5.8,54,0.00,CLR,,0.00,WeatherDisplay:10.37,2013-01-02 20:09:00,
2013-01-02 14:15:00,19.6,5.6,29.91,SSW,201,6.9,6.9,54,0.00,CLR,,0.00,WeatherDisplay:10.37,2013-01-02 20:15:00,
2013-01-02 14:20:00,19.6,5.6,29.91,South,183,3.5,3.5,54,0.00,CLR,,0.00,WeatherDisplay:10.37,2013-01-02 20:20:00,
2013-01-02 14:25:00,19.8,5.8,29.91,SSW,203,3.5,3.5,54,0.00,CLR,,0.00,WeatherDisplay:10.37,2013-01-02 20:25:00,
2013-01-02 14:30:00,19.9,5.9,29.91,SSW,204,5.8,5.8,54,0.00,CLR,,0.00,WeatherDisplay:10.37,2013-01-02 20:30:00,
2013-01-02 14:35:00,19.9,5.9,29.91,SW,221,5.8,5.8,54,0.00,CLR,,0.00,WeatherDisplay:10.37,2013-01-02 20:35:00,
2013-01-02 14:41:00,19.6,5.6,29.91,SSW,205,3.6,3.6,54,0.00,CLR,,0.00,WeatherDisplay:10.37,2013-01-02 20:41:00,
2013-01-02 14:46:00,19.4,5.8,29.91,SSW,200,5.8,5.8,55,0.00,CLR,,0.00,WeatherDisplay:10.37,2013-01-02 20:46:00,
2013-01-02 14:51:00,19.2,5.7,29.91,SSW,213,6.9,6.9,55,0.00,CLR,,0.00,WeatherDisplay:10.37,2013-01-02 20:51:00,
2013-01-02 14:56:00,19.2,5.7,29.91,SSW,204,5.8,5.8,55,0.00,CLR,,0.00,WeatherDisplay:10.37,2013-01-02 20:56:00,
2013-01-02 15:02:00,19.0,5.5,29.91,SW,227,5.8,5.8,55,0.00,CLR,,0.00,WeatherDisplay:10.37,2013-01-02 21:02:00,
2013-01-02 15:07:00,18.9,5.3,29.91,SSW,208,3.5,4.0,55,0.00,CLR,,0.00,WeatherDisplay:10.37,2013-01-02 21:07:00,
2013-01-02 15:12:00,18.9,5.3,29.91,SSW,213,3.5,3.5,55,0.00,CLR,,0.00,WeatherDisplay:10.37,2013-01-02 21:12:00,
2013-01-02 15:17:00,19.0,5.5,29.91,SW,224,3.5,3.5,55,0.00,CLR,,0.00,WeatherDisplay:10.37,2013-01-02 21:17:00,
2013-01-02 15:22:00,19.2,5.7,29.91,SSW,213,3.6,3.6,55,0.00,CLR,,0.00,WeatherDisplay:10.37,2013-01-02 21:22:00,
2013-01-02 15:28:00,19.0,5.5,29.91,SW,214,5.8,5.8,55,0.00,CLR,,0.00,WeatherDisplay:10.37,2013-01-02 21:28:00,
2013-01-02 15:33:00,18.9,5.7,29.91,SW,215,5.8,5.8,56,0.00,CLR,,0.00,WeatherDisplay:10.37,2013-01-02 21:33:00,
2013-01-02 15:38:00,18.7,5.6,29.91,SSW,206,5.8,5.8,56,0.00,CLR,,0.00,WeatherDisplay:10.37,2013-01-02 21:38:00,
2013-01-02 15:43:00,18.7,5.6,29.91,SSW,200,5.8,5.8,56,0.00,CLR,,0.00,WeatherDisplay:10.37,2013-01-02 21:43:00,
2013-01-02 15:49:00,18.3,5.2,29.91,South,188,5.8,5.8,56,0.00,CLR,,0.00,WeatherDisplay:10.37,2013-01-02 21:49:00,
2013-01-02 15:54:00,18.1,5.1,29.91,SSE,168,0.0,0.0,56,0.00,CLR,,0.00,WeatherDisplay:10.37,2013-01-02 21:54:00,
2013-01-02 15:59:00,17.8,4.7,29.91,South,186,5.8,5.8,56,0.00,CLR,,0.00,WeatherDisplay:10.37,2013-01-02 21:59:00,
2013-01-02 16:04:00,17.6,4.9,29.91,SSW,194,2.3,2.3,57,0.00,CLR,,0.00,WeatherDisplay:10.37,2013-01-02 22:04:00,
2013-01-02 16:09:00,17.2,4.6,29.91,SSW,213,3.5,3.5,57,0.00,CLR,,0.00,WeatherDisplay:10.37,2013-01-02 22:09:00,
2013-01-02 16:15:00,16.9,4.3,29.91,SW,218,2.3,0.0,57,0.00,CLR,,0.00,WeatherDisplay:10.37,2013-01-02 22:15:00,
2013-01-02 16:20:00,16.9,4.3,29.94,SW,218,0.0,0.0,57,0.00,CLR,,0.00,WeatherDisplay:10.37,2013-01-02 22:20:00,
2013-01-02 16:25:00,16.9,4.6,29.94,SW,218,0.0,0.0,58,0.00,CLR,,0.00,WeatherDisplay:10.37,2013-01-02 22:25:00,
2013-01-02 16:30:00,16.7,4.5,29.94,SW,222,0.0,0.0,58,0.00,CLR,,0.00,WeatherDisplay:10.37,2013-01-02 22:30:00,
2013-01-02 16:35:00,16.9,4.6,29.94,SW,215,3.5,3.5,58,0.00,CLR,,0.00,WeatherDisplay:10.37,2013-01-02 22:35:00,
2013-01-02 16:41:00,16.9,5.0,29.94,SW,214,3.5,3.5,59,0.00,CLR,,0.00,WeatherDisplay:10.37,2013-01-02 22:41:00,
2013-01-02 16:46:00,16.9,5.0,29.94,SW,217,2.7,2.7,59,0.00,CLR,,0.00,WeatherDisplay:10.37,2013-01-02 22:46:00,
2013-01-02 16:51:00,17.1,5.2,29.94,SW,217,0.0,0.0,59,0.00,CLR,,0.00,WeatherDisplay:10.37,2013-01-02 22:51:00,
2013-01-02 16:56:00,17.1,5.5,29.94,SW,217,0.0,0.0,60,0.00,CLR,,0.00,WeatherDisplay:10.37,2013-01-02 22:56:00,
2013-01-02 17:02:00,17.1,5.5,29.94,SW,217,0.0,0.0,60,0.00,CLR,,0.00,WeatherDisplay:10.37,2013-01-02 23:02:00,
2013-01-02 17:07:00,17.1,5.5,29.94,SSW,213,0.0,0.0,60,0.00,CLR,,0.00,WeatherDisplay:10.37,2013-01-02 23:07:00,
2013-01-02 17:12:00,16.9,5.4,29.94,SSW,213,0.0,0.0,60,0.00,CLR,,0.00,WeatherDisplay:10.37,2013-01-02 23:12:00,
2013-01-02 17:17:00,16.9,5.4,29.94,SSW,213,0.0,0.0,60,0.00,CLR,,0.00,WeatherDisplay:10.37,2013-01-02 23:17:00,
2013-01-02 17:22:00,16.9,5.7,29.94,SW,219,3.5,3.5,61,0.00,CLR,,0.00,WeatherDisplay:10.37,2013-01-02 23:22:00,
2013-01-02 17:28:00,16.9,5.7,29.94,SW,233,3.5,3.5,61,0.00,CLR,,0.00,WeatherDisplay:10.37,2013-01-02 23:28:00,
2013-01-02 17:33:00,17.1,5.9,29.94,SSW,209,4.6,4.6,61,0.00,CLR,,0.00,WeatherDisplay:10.37,2013-01-02 23:33:00,
2013-01-02 17:38:00,17.1,5.9,29.94,SSW,206,3.5,3.5,61,0.00,CLR,,0.00,WeatherDisplay:10.37,2013-01-02 23:38:00,
2013-01-02 17:43:00,17.1,5.9,29.94,SSW,203,4.6,4.6,61,0.00,CLR,,0.00,WeatherDisplay:10.37,2013-01-02 23:43:00,
2013-01-02 17:48:00,17.1,5.9,29.94,South,174,2.3,0.0,61,0.00,CLR,,0.00,WeatherDisplay:10.37,2013-01-02 23:48:00,
2013-01-02 17:54:00,17.1,6.3,29.94,SSW,212,4.9,4.9,62,0.00,CLR,,0.00,WeatherDisplay:10.37,2013-01-02 23:54:00,
2013-01-02 17:59:00,17.1,6.3,29.94,SW,220,3.5,3.5,62,0.00,CLR,,0.00,WeatherDisplay:10.37,2013-01-02 23:59:00,
2013-01-02 18:04:00,17.1,6.3,29.94,SSW,208,2.3,0.0,62,0.00,CLR,,0.00,WeatherDisplay:10.37,2013-01-03 00:04:00,
2013-01-02 18:09:00,17.1,6.3,29.94,SSW,207,3.5,3.5,62,0.00,CLR,,0.00,WeatherDisplay:10.37,2013-01-03 00:09:00,
2013-01-02 18:15:00,17.1,6.6,29.94,SW,220,2.3,2.3,63,0.00,CLR,,0.00,WeatherDisplay:10.37,2013-01-03 00:15:00,
2013-01-02 18:20:00,16.9,6.4,29.94,SW,221,3.5,3.5,63,0.00,CLR,,0.00,WeatherDisplay:10.37,2013-01-03 00:20:00,
2013-01-02 18:25:00,16.9,6.4,29.94,South,187,2.3,0.0,63,0.00,CLR,,0.00,WeatherDisplay:10.37,2013-01-03 00:25:00,
2013-01-02 18:30:00,16.9,6.4,29.94,South,187,0.0,0.0,63,0.00,CLR,,0.00,WeatherDisplay:10.37,2013-01-03 00:30:00,
2013-01-02 18:35:00,16.9,6.4,29.94,South,187,0.0,0.0,63,0.00,CLR,,0.00,WeatherDisplay:10.37,2013-01-03 00:35:00,
2013-01-02 18:41:00,16.9,6.4,29.94,South,187,0.0,0.0,63,0.00,CLR,,0.00,WeatherDisplay:10.37,2013-01-03 00:41:00,
2013-01-02 18:46:00,16.9,6.4,29.94,South,187,0.0,0.0,63,0.00,CLR,,0.00,WeatherDisplay:10.37,2013-01-03 00:46:00,
2013-01-02 18:51:00,16.9,6.4,29.94,SW,217,0.0,0.0,63,0.00,CLR,,0.00,WeatherDisplay:10.37,2013-01-03 00:51:00,
2013-01-02 18:56:00,16.9,6.4,29.94,SW,217,0.0,0.0,63,0.00,CLR,,0.00,WeatherDisplay:10.37,2013-01-03 00:56:00,
2013-01-02 19:01:00,16.9,6.4,29.94,SW,217,0.0,0.0,63,0.00,CLR,,0.00,WeatherDisplay:10.37,2013-01-03 01:01:00,
2013-01-02 19:07:00,16.9,6.4,29.94,SW,223,0.0,0.0,63,0.00,CLR,,0.00,WeatherDisplay:10.37,2013-01-03 01:07:00,
2013-01-02 19:12:00,16.9,6.4,29.94,WSW,253,2.3,0.0,63,0.00,CLR,,0.00,WeatherDisplay:10.37,2013-01-03 01:12:00,
2013-01-02 19:17:00,16.9,6.8,29.94,WSW,241,0.0,0.0,64,0.00,CLR,,0.00,WeatherDisplay:10.37,2013-01-03 01:17:00,
2013-01-02 19:22:00,16.7,6.6,29.97,SW,235,0.0,0.0,64,0.00,CLR,,0.00,WeatherDisplay:10.37,2013-01-03 01:22:00,
2013-01-02 19:27:00,16.7,6.6,29.97,SW,229,3.5,3.5,64,0.00,CLR,,0.00,WeatherDisplay:10.37,2013-01-03 01:27:00,
2013-01-02 19:32:00,16.7,6.6,29.97,SW,228,2.3,0.0,64,0.00,CLR,,0.00,WeatherDisplay:10.37,2013-01-03 01:32:00,
2013-01-02 19:37:00,16.7,6.6,29.97,SW,228,0.0,0.0,64,0.00,CLR,,0.00,WeatherDisplay:10.37,2013-01-03 01:37:00,
2013-01-02 19:43:00,16.7,6.6,29.97,SW,228,0.0,0.0,64,0.00,CLR,,0.00,WeatherDisplay:10.37,2013-01-03 01:43:00,
2013-01-02 19:48:00,16.5,6.5,29.94,SW,216,0.0,0.0,64,0.00,CLR,,0.00,WeatherDisplay:10.37,2013-01-03 01:48:00,
2013-01-02 19:53:00,16.3,6.3,29.94,SW,223,3.5,0.0,64,0.00,CLR,,0.00,WeatherDisplay:10.37,2013-01-03 01:53:00,
2013-01-02 19:58:00,16.2,5.8,29.94,SW,226,3.5,3.5,63,0.00,CLR,,0.00,WeatherDisplay:10.37,2013-01-03 01:58:00,
2013-01-02 20:03:00,16.0,5.6,29.94,SW,226,0.0,0.0,63,0.00,CLR,,0.00,WeatherDisplay:10.37,2013-01-03 02:03:00,
2013-01-02 20:09:00,16.0,5.6,29.94,SW,226,0.0,0.0,63,0.00,CLR,,0.00,WeatherDisplay:10.37,2013-01-03 02:09:00,
2013-01-02 20:14:00,16.0,5.9,29.94,NW,305,3.1,0.0,64,0.00,CLR,,0.00,WeatherDisplay:10.37,2013-01-03 02:14:00,
2013-01-02 20:19:00,15.8,5.8,29.97,WNW,290,0.0,0.0,64,0.00,CLR,,0.00,WeatherDisplay:10.37,2013-01-03 02:19:00,
2013-01-02 20:24:00,15.8,5.8,29.97,West,268,0.0,0.0,64,0.00,CLR,,0.00,WeatherDisplay:10.37,2013-01-03 02:24:00,
2013-01-02 20:29:00,15.8,5.8,29.97,West,263,3.5,3.5,64,0.00,CLR,,0.00,WeatherDisplay:10.37,2013-01-03 02:29:00,
2013-01-02 20:34:00,15.8,5.8,29.97,WNW,283,0.0,0.0,64,0.00,CLR,,0.00,WeatherDisplay:10.37,2013-01-03 02:34:00,
2013-01-02 20:39:00,16.0,5.9,29.97,West,281,3.5,3.5,64,0.00,CLR,,0.00,WeatherDisplay:10.37,2013-01-03 02:39:00,
2013-01-02 20:44:00,16.0,5.9,29.97,WNW,285,2.7,2.7,64,0.00,CLR,,0.00,WeatherDisplay:10.37,2013-01-03 02:44:00,
2013-01-02 20:50:00,16.0,5.9,29.97,WNW,287,2.3,0.0,64,0.00,CLR,,0.00,WeatherDisplay:10.37,2013-01-03 02:50:00,
2013-01-02 20:55:00,16.0,5.9,29.97,WNW,283,0.0,0.0,64,0.00,CLR,,0.00,WeatherDisplay:10.37,2013-01-03 02:55:00,
2013-01-02 21:00:00,16.0,5.9,29.97,WNW,287,3.5,3.5,64,0.00,CLR,,0.00,WeatherDisplay:10.37,2013-01-03 03:00:00,
2013-01-02 21:05:00,16.0,5.9,29.97,WSW,244,3.5,3.5,64,0.00,CLR,,0.00,WeatherDisplay:10.37,2013-01-03 03:05:00,
2013-01-02 21:10:00,16.0,5.9,29.97,WSW,242,0.0,0.0,64,0.00,CLR,,0.00,WeatherDisplay:10.37,2013-01-03 03:10:00,
2013-01-02 21:16:00,16.0,5.9,29.97,WSW,241,0.0,0.0,64,0.00,CLR,,0.00,WeatherDisplay:10.37,2013-01-03 03:16:00,
2013-01-02 21:21:00,16.0,5.9,29.94,WSW,241,0.0,0.0,64,0.00,CLR,,0.00,WeatherDisplay:10.37,2013-01-03 03:21:00,
2013-01-02 21:26:00,16.0,5.9,29.94,WNW,290,0.0,0.0,64,0.00,CLR,,0.00,WeatherDisplay:10.37,2013-01-03 03:26:00,
2013-01-02 21:31:00,16.0,5.9,29.94,WNW,283,3.5,0.0,64,0.00,CLR,,0.00,WeatherDisplay:10.37,2013-01-03 03:31:00,
2013-01-02 21:36:00,16.0,5.9,29.97,WSW,243,2.3,0.0,64,0.00,CLR,,0.00,WeatherDisplay:10.37,2013-01-03 03:36:00,
2013-01-02 21:41:00,16.0,5.9,29.97,WSW,239,3.5,3.5,64,0.00,CLR,,0.00,WeatherDisplay:10.37,2013-01-03 03:41:00,
2013-01-02 21:46:00,16.0,5.9,29.97,West,273,3.5,3.5,64,0.00,CLR,,0.00,WeatherDisplay:10.37,2013-01-03 03:46:00,
2013-01-02 21:51:00,16.0,5.9,29.97,WSW,254,2.3,2.3,64,0.00,CLR,,0.00,WeatherDisplay:10.37,2013-01-03 03:51:00,
2013-01-02 21:57:00,16.0,5.9,29.97,WSW,240,0.0,0.0,64,0.00,CLR,,0.00,WeatherDisplay:10.37,2013-01-03 03:57:00,
2013-01-02 22:02:00,16.0,5.9,29.97,WSW,252,2.7,0.0,64,0.00,CLR,,0.00,WeatherDisplay:10.37,2013-01-03 04:02:00,
2013-01-02 22:07:00,16.0,5.9,29.97,West,276,3.5,3.5,64,0.00,CLR,,0.00,WeatherDisplay:10.37,2013-01-03 04:07:00,
2013-01-02 22:12:00,16.0,5.9,29.97,West,261,4.6,4.6,64,0.00,CLR,,0.00,WeatherDisplay:10.37,2013-01-03 04:12:00,
2013-01-02 22:17:00,16.0,5.9,29.97,WSW,243,3.5,3.5,64,0.00,CLR,,0.00,WeatherDisplay:10.37,2013-01-03 04:17:00,
2013-01-02 22:22:00,16.0,5.9,29.97,West,263,3.5,3.5,64,0.00,CLR,,0.00,WeatherDisplay:10.37,2013-01-03 04:22:00,
2013-01-02 22:28:00,16.0,5.9,29.97,West,265,3.5,3.5,64,0.00,CLR,,0.00,WeatherDisplay:10.37,2013-01-03 04:28:00,
2013-01-02 22:33:00,16.0,5.9,29.97,WNW,290,4.0,4.0,64,0.00,CLR,,0.00,WeatherDisplay:10.37,2013-01-03 04:33:00,
2013-01-02 22:38:00,16.0,5.9,29.97,West,276,3.5,3.5,64,0.00,CLR,,0.00,WeatherDisplay:10.37,2013-01-03 04:38:00,
2013-01-02 22:43:00,15.8,6.1,29.97,WNW,285,3.5,3.5,65,0.00,CLR,,0.00,WeatherDisplay:10.37,2013-01-03 04:43:00,
2013-01-02 22:48:00,16.0,5.9,29.97,WNW,284,3.6,3.6,64,0.00,CLR,,0.00,WeatherDisplay:10.37,2013-01-03 04:48:00,
2013-01-02 22:53:00,15.8,6.1,29.97,WNW,299,3.5,3.6,65,0.00,CLR,,0.00,WeatherDisplay:10.37,2013-01-03 04:53:00,
2013-01-02 22:58:00,15.8,6.1,29.97,WSW,237,3.5,3.5,65,0.00,CLR,,0.00,WeatherDisplay:10.37,2013-01-03 04:58:00,
2013-01-02 23:02:00,15.8,6.1,29.97,WNW,296,3.5,3.5,65,0.00,CLR,,0.00,WeatherDisplay:10.37,2013-01-03 05:02:00,
2013-01-02 23:03:00,15.8,6.1,29.97,WNW,297,3.5,3.5,65,0.00,CLR,,0.00,WeatherDisplay:10.37,2013-01-03 05:03:00,
2013-01-02 23:05:00,15.8,6.1,29.97,WNW,297,2.3,0.0,65,0.00,CLR,,0.00,WeatherDisplay:10.37,2013-01-03 05:05:00,
2013-01-02 23:10:00,15.8,6.1,29.97,WNW,301,3.5,3.5,65,0.00,CLR,,0.00,WeatherDisplay:10.37,2013-01-03 05:10:00,
2013-01-02 23:15:00,15.8,6.1,29.97,NNW,327,3.5,3.6,65,0.00,CLR,,0.00,WeatherDisplay:10.37,2013-01-03 05:15:00,
2013-01-02 23:20:00,15.8,6.1,29.97,NW,313,3.5,3.6,65,0.00,CLR,,0.00,WeatherDisplay:10.37,2013-01-03 05:20:00,
2013-01-02 23:25:00,15.6,5.9,29.97,West,281,3.5,3.5,65,0.00,CLR,,0.00,WeatherDisplay:10.37,2013-01-03 05:25:00,
2013-01-02 23:31:00,15.6,5.9,29.97,WNW,291,3.5,3.5,65,0.00,CLR,,0.00,WeatherDisplay:10.37,2013-01-03 05:31:00,
2013-01-02 23:36:00,15.6,5.9,29.97,NW,312,3.5,3.5,65,0.00,CLR,,0.00,WeatherDisplay:10.37,2013-01-03 05:36:00,
2013-01-02 23:41:00,15.6,5.9,29.97,NNW,334,3.6,3.6,65,0.00,CLR,,0.00,WeatherDisplay:10.37,2013-01-03 05:41:00,
2013-01-02 23:46:00,15.6,5.9,29.97,NW,307,3.5,3.5,65,0.00,CLR,,0.00,WeatherDisplay:10.37,2013-01-03 05:46:00,
2013-01-02 23:51:00,15.6,5.9,30.00,NW,304,3.5,3.5,65,0.00,CLR,,0.00,WeatherDisplay:10.37,2013-01-03 05:51:00,
2013-01-02 23:56:00,15.6,5.9,30.00,NNW,327,3.5,0.0,65,0.00,CLR,,0.00,WeatherDisplay:10.37,2013-01-03 05:56:00,